F4GCF-13 Weather Reports


time (UTC)temp
C
wind
direction
speed
KPH
gust
KPH
rain 1hr
cm
rain 24hr
cm
rain mn
cm
humidity
%
barometer
mb
20260506105536 14 273 20.9 20.9 0.13 0.20 0.13 83 1014.0
20260506103539 13 260 12.9 11.3 0.13 0.20 0.13 81 1014.0
20260506101537 15 253 14.5 20.9 0.00 0.08 0.00 78 1014.0
20260506100536 16 248 11.3 20.9 0.00 0.08 0.00 80 1014.0
20260506100038 15 248 12.9 14.5 0.00 0.08 0.00 80 1014.0
20260506095537 15 249 11.3 14.5 0.00 0.08 0.00 81 1014.0
20260506094040 15 269 11.3 16.1 0.00 0.08 0.00 82 1014.0
20260506093543 14 248 12.9 16.1 0.00 0.08 0.00 82 1014.0
20260506092536 14 248 11.3 16.1 0.00 0.08 0.00 82 1014.0
20260506091038 14 248 16.1 17.7 0.00 0.08 0.00 81 1014.0
20260506090539 15 257 14.5 20.9 0.00 0.08 0.00 81 1014.0
20260506085542 15 263 12.9 16.1 0.00 0.08 0.00 82 1014.0
20260506085036 15 255 12.9 19.3 0.00 0.08 0.00 82 1014.0
20260506084541 15 247 9.7 16.1 0.00 0.08 0.00 83 1014.0
20260506083538 15 259 16.1 17.7 0.00 0.08 0.00 84 1013.0
20260506083038 14 255 11.3 9.7 0.00 0.08 0.00 84 1013.0
20260506082038 14 248 12.9 16.1 0.00 0.08 0.00 84 1014.0
20260506081040 15 251 14.5 20.9 0.00 0.08 0.00 87 1014.0
20260506080610 14 244 14.5 12.9 0.00 0.08 0.00 87 1014.0
20260506080535 14 244 14.5 12.9 0.00 0.08 0.00 87 1014.0
20260506072540 12 256 11.3 16.1 0.00 0.08 0.00 91 1014.0
20260506072038 12 248 12.9 24.1 0.00 0.08 0.00 92 1014.0
20260506071539 12 249 11.3 16.1 0.00 0.08 0.00 92 1014.0
20260506071037 12 249 9.7 16.1 0.00 0.08 0.00 92 1014.0
20260506070535 12 251 6.4 12.9 0.00 0.08 0.00 93 1014.0
20260506062043 10 230 6.4 8.0 0.00 0.08 0.00 94 1014.0
20260506061535 10 254 4.8 4.8 0.00 0.08 0.00 94 1014.0
20260506060538 10 261 6.4 9.7 0.00 0.08 0.00 94 1014.0
20260506044244 9 248 6.4 8.0 0.00 0.08 0.00 94 1014.0
20260506043739 9 248 8.0 9.7 0.00 0.08 0.00 94 1014.0
20260506041739 9 257 8.0 9.7 0.00 0.08 0.00 95 1014.0
20260506040240 8 260 11.3 12.9 0.00 0.08 0.00 94 1014.0
20260506035741 8 252 8.0 8.0 0.00 0.08 0.00 94 1014.0
20260506034741 8 260 8.0 9.7 0.00 0.08 0.00 94 1014.0
20260506033739 8 252 6.4 6.4 0.00 0.08 0.00 94 1014.0
20260506033245 8 258 8.0 9.7 0.00 0.08 0.00 94 1014.0
20260506030742 9 264 6.4 11.3 0.00 0.08 0.00 94 1014.0
20260506024742 9 253 6.4 4.8 0.00 0.08 0.00 93 1014.0
20260506022742 9 254 8.0 9.7 0.00 0.08 0.00 93 1014.0
20260506022239 9 252 6.4 9.7 0.00 0.08 0.00 93 1014.0
20260506021244 9 263 9.7 11.3 0.00 0.08 0.00 93 1014.0
20260506013740 10 256 9.7 16.1 0.00 0.08 0.00 92 1013.0
20260506012815 10 251 11.3 12.9 0.00 0.08 0.00 92 1013.0
20260506012741 10 251 11.3 12.9 0.00 0.08 0.00 92 1013.0
20260506012243 10 252 9.7 9.7 0.00 0.08 0.00 92 1014.0
20260506010741 10 242 8.0 9.7 0.00 0.08 0.00 92 1013.0
20260506004741 10 275 6.4 9.7 0.00 0.08 0.00 91 1014.0
20260506004242 10 271 8.0 9.7 0.00 0.08 0.00 91 1014.0
20260506003743 10 248 8.0 9.7 0.00 0.08 0.00 91 1014.0
20260506002241 10 259 6.4 8.0 0.00 0.08 0.00 91 1014.0
20260506000247 10 230 4.8 8.0 0.00 0.08 0.00 90 1014.0
20260505233817 10 266 1.6 3.2 0.00 0.08 0.00 89 1014.0
20260505233741 10 266 1.6 3.2 0.00 0.08 0.00 89 1014.0
20260505233243 10 252 3.2 3.2 0.00 0.08 0.00 89 1014.0
20260505232240 10 272 0.0 1.6 0.00 0.08 0.00 88 1014.0
20260505231740 10 260 0.0 3.2 0.00 0.08 0.00 88 1014.0
20260505230840 10 244 1.6 1.6 0.00 0.08 0.00 88 1014.0
20260505230740 10 244 1.6 1.6 0.00 0.08 0.00 88 1014.0
20260505230240 10 244 3.2 4.8 0.00 0.08 0.00 87 1014.0
20260505225840 10 244 3.2 6.4 0.00 0.08 0.00 87 1014.0
20260505225743 10 244 3.2 6.4 0.00 0.08 0.00 87 1014.0
20260505224241 10 263 3.2 3.2 0.00 0.08 0.00 86 1014.0
20260505223826 10 255 4.8 8.0 0.00 0.08 0.00 86 1014.0
20260505223740 10 255 4.8 8.0 0.00 0.08 0.00 86 1014.0
20260505221625 10 239 6.4 6.4 0.00 0.08 0.00 85 1014.0
20260505221243 10 239 6.4 6.4 0.00 0.08 0.00 85 1014.0
20260505220739 10 259 4.8 8.0 0.00 0.08 0.00 84 1014.0
20260505220238 10 251 6.4 6.4 0.00 0.08 0.00 84 1014.0
20260505215817 10 251 8.0 9.7 0.00 0.08 0.08 84 1014.0
20260505215740 10 251 8.0 9.7 0.00 0.08 0.08 84 1014.0
20260505214238 10 213 4.8 6.4 0.00 0.08 0.08 83 1014.0
20260505213738 10 239 6.4 9.7 0.00 0.08 0.08 82 1014.0
20260505213239 10 252 6.4 9.7 0.00 0.08 0.08 82 1014.0
20260505212737 10 248 6.4 8.0 0.00 0.08 0.08 81 1014.0
20260505212240 10 248 8.0 9.7 0.00 0.08 0.08 81 1015.0
20260505211238 10 251 3.2 6.4 0.00 0.08 0.08 80 1015.0
20260505210844 11 252 4.8 6.4 0.00 0.08 0.08 79 1015.0
20260505210739 11 252 4.8 6.4 0.00 0.08 0.08 79 1015.0
20260505210237 11 255 8.0 8.0 0.00 0.08 0.08 79 1015.0
20260505205819 11 252 6.4 6.4 0.00 0.08 0.08 78 1015.0
20260505205739 11 252 6.4 6.4 0.00 0.08 0.08 78 1015.0
20260505204240 11 244 4.8 4.8 0.00 0.08 0.08 76 1014.0
20260505203740 11 248 4.8 6.4 0.00 0.08 0.08 76 1014.0
20260505203239 11 248 6.4 8.0 0.00 0.08 0.08 76 1014.0
20260505202239 11 253 9.7 14.5 0.00 0.08 0.08 75 1014.0
20260505201739 11 248 6.4 9.7 0.00 0.08 0.08 75 1014.0
20260505200741 12 247 6.4 8.0 0.00 0.08 0.08 74 1014.0
20260505195739 12 253 6.4 9.7 0.00 0.08 0.08 74 1014.0
20260505195239 12 254 6.4 6.4 0.00 0.08 0.08 74 1014.0
20260505194738 12 261 6.4 6.4 0.00 0.08 0.08 74 1014.0
20260505194240 12 248 8.0 9.7 0.00 0.08 0.08 73 1014.0
20260505193741 12 256 6.4 9.7 0.00 0.08 0.08 73 1014.0
20260505192237 12 248 6.4 9.7 0.00 0.08 0.08 73 1014.0
20260505191740 12 248 4.8 4.8 0.00 0.08 0.08 72 1014.0
20260505183239 14 312 4.8 4.8 0.00 0.08 0.08 67 1014.0
20260505182742 14 282 4.8 6.4 0.00 0.08 0.08 67 1014.0
20260505180739 14 317 6.4 6.4 0.00 0.08 0.08 65 1014.0
20260505175238 14 249 6.4 9.7 0.00 0.08 0.08 64 1014.0
20260505174738 14 258 9.7 9.7 0.00 0.08 0.08 64 1014.0
20260505174238 15 248 9.7 9.7 0.00 0.08 0.08 64 1014.0
20260505173739 15 262 12.9 16.1 0.00 0.20 0.08 62 1014.0
20260505173237 15 261 9.7 9.7 0.00 0.20 0.08 62 1014.0
20260505172740 15 256 4.8 8.0 0.00 0.20 0.08 61 1014.0
20260505172313 15 253 6.4 12.9 0.00 0.20 0.08 61 1014.0
20260505172240 15 253 6.4 12.9 0.00 0.20 0.08 61 1014.0
20260505171739 15 266 8.0 9.7 0.00 0.20 0.08 60 1014.0
20260505170738 16 260 6.4 9.7 0.00 0.20 0.08 59 1014.0
20260505170239 16 253 6.4 6.4 0.00 0.20 0.08 58 1014.0
20260505165738 16 252 8.0 14.5 0.00 0.20 0.08 58 1014.0
20260505165239 16 260 9.7 11.3 0.00 0.20 0.08 58 1014.0
20260505164738 16 266 11.3 17.7 0.00 0.20 0.08 57 1014.0
20260505164239 16 248 9.7 16.1 0.00 0.20 0.08 57 1014.0
20260505163738 17 273 9.7 14.5 0.00 0.20 0.08 59 1014.0
20260505163238 17 296 8.0 8.0 0.00 0.20 0.08 60 1014.0
20260505162738 17 248 9.7 9.7 0.00 0.20 0.08 61 1014.0
20260505162238 16 329 8.0 9.7 0.00 0.20 0.08 62 1014.0
20260505161737 16 309 6.4 8.0 0.00 0.20 0.08 63 1014.0
20260505161238 15 270 8.0 8.0 0.00 0.20 0.08 63 1014.0
20260505160738 15 258 8.0 9.7 0.00 0.20 0.08 62 1014.0
20260505160239 16 277 8.0 9.7 0.00 0.20 0.08 62 1014.0
20260505153312 16 285 12.9 17.7 0.00 0.20 0.08 60 1014.0
20260505153237 16 285 12.9 17.7 0.00 0.20 0.08 60 1014.0
20260505152737 16 276 8.0 12.9 0.00 0.20 0.08 60 1014.0
20260505152238 16 262 11.3 11.3 0.00 0.20 0.08 62 1014.0
20260505151237 16 281 11.3 16.1 0.00 0.20 0.08 64 1014.0
20260505150238 16 248 9.7 12.9 0.00 0.20 0.08 63 1013.0
20260505130240 17 247 16.1 17.7 0.08 0.41 0.08 66 1014.0
20260505124246 16 252 12.9 12.9 0.08 0.51 0.08 69 1013.0
20260505123738 16 270 16.1 14.5 0.08 0.51 0.08 71 1014.0
20260505123238 16 251 12.9 16.1 0.08 0.51 0.08 72 1014.0
20260505122737 16 270 6.4 4.8 0.00 0.43 0.00 79 1014.0
20260505122237 16 270 6.4 4.8 0.00 0.43 0.00 79 1014.0
20260505121737 16 270 6.4 4.8 0.00 0.43 0.00 79 1014.0
20260505121348 16 270 6.4 4.8 0.00 0.43 0.00 79 1014.0
20260505121239 16 270 6.4 4.8 0.00 0.43 0.00 79 1014.0
20260505120738 16 270 6.4 4.8 0.00 0.43 0.00 79 1014.0
20260505120238 16 270 6.4 4.8 0.00 0.43 0.00 79 1014.0
20260505115737 16 270 6.4 4.8 0.00 0.43 0.00 79 1014.0